Time,TemperatureF,DewpointF,PressureIn,WindDirection,WindDirectionDegrees,WindSpeedMPH,WindSpeedGustMPH,Humidity,HourlyPrecipIn,Conditions,Clouds,dailyrainin,SoftwareType,DateUTC
2013-05-03 00:09:00,44.7,36.0,30.36,NW,312,3.0,12.0,71,0.00,,,0.00,weatherlink.com 1.10,2013-05-03 05:09:00,
2013-05-03 00:24:00,44.3,36.0,30.36,NNW,346,5.0,10.0,72,0.00,,,0.00,weatherlink.com 1.10,2013-05-03 05:24:00,
2013-05-03 00:39:00,44.0,36.0,30.36,NNW,332,5.0,11.0,73,0.00,,,0.00,weatherlink.com 1.10,2013-05-03 05:39:00,
2013-05-03 00:54:00,43.7,36.0,30.36,NNW,339,3.0,9.0,73,0.00,,,0.00,weatherlink.com 1.10,2013-05-03 05:54:00,
2013-05-03 01:09:00,43.3,36.0,30.36,WNW,301,7.0,9.0,74,0.00,,,0.00,weatherlink.com 1.10,2013-05-03 06:09:00,
2013-05-03 01:24:00,42.9,35.0,30.36,NW,308,3.0,8.0,74,0.00,,,0.00,weatherlink.com 1.10,2013-05-03 06:24:00,
2013-05-03 01:39:00,42.3,35.0,30.35,NW,314,5.0,7.0,75,0.00,,,0.00,weatherlink.com 1.10,2013-05-03 06:39:00,
2013-05-03 01:54:00,42.7,35.0,30.35,NW,324,5.0,11.0,73,0.00,,,0.00,weatherlink.com 1.10,2013-05-03 06:54:00,
2013-05-03 02:09:00,43.1,35.0,30.34,WNW,299,9.0,12.0,72,0.00,,,0.00,weatherlink.com 1.10,2013-05-03 07:09:00,
2013-05-03 02:24:00,43.4,34.0,30.34,NW,318,6.0,12.0,70,0.00,,,0.00,weatherlink.com 1.10,2013-05-03 07:24:00,
2013-05-03 02:39:00,43.3,34.0,30.34,NNW,337,2.0,11.0,70,0.00,,,0.00,weatherlink.com 1.10,2013-05-03 07:39:00,
2013-05-03 02:54:00,42.7,34.0,30.34,WNW,297,7.0,11.0,71,0.00,,,0.00,weatherlink.com 1.10,2013-05-03 07:54:00,
2013-05-03 03:09:00,42.1,34.0,30.34,NW,308,1.0,8.0,73,0.00,,,0.00,weatherlink.com 1.10,2013-05-03 08:09:00,
2013-05-03 03:24:00,41.9,34.0,30.33,West,278,3.0,9.0,73,0.00,,,0.00,weatherlink.com 1.10,2013-05-03 08:24:00,
2013-05-03 03:39:00,41.7,34.0,30.34,NNW,328,2.0,13.0,73,0.00,,,0.00,weatherlink.com 1.10,2013-05-03 08:39:00,
2013-05-03 03:54:00,41.5,34.0,30.34,NNW,339,5.0,11.0,74,0.00,,,0.00,weatherlink.com 1.10,2013-05-03 08:54:00,
2013-05-03 04:09:00,41.4,34.0,30.34,WNW,293,6.0,11.0,74,0.00,,,0.00,weatherlink.com 1.10,2013-05-03 09:09:00,
2013-05-03 04:24:00,41.4,34.0,30.34,NW,307,6.0,9.0,74,0.00,,,0.00,weatherlink.com 1.10,2013-05-03 09:24:00,
2013-05-03 04:39:00,41.0,33.0,30.34,NW,305,8.0,9.0,74,0.00,,,0.00,weatherlink.com 1.10,2013-05-03 09:39:00,
2013-05-03 04:54:00,40.1,33.0,30.34,WNW,303,4.0,7.0,76,0.00,,,0.00,weatherlink.com 1.10,2013-05-03 09:54:00,
2013-05-03 05:09:00,39.6,33.0,30.34,NW,319,5.0,6.0,76,0.00,,,0.00,weatherlink.com 1.10,2013-05-03 10:09:00,
2013-05-03 05:24:00,39.3,32.0,30.34,NW,309,3.0,8.0,76,0.00,,,0.00,weatherlink.com 1.10,2013-05-03 10:24:00,
2013-05-03 05:40:00,39.5,32.0,30.34,NW,309,3.0,7.0,75,0.00,,,0.00,weatherlink.com 1.10,2013-05-03 10:40:00,
2013-05-03 05:55:00,39.7,32.0,30.34,NNW,345,4.0,9.0,73,0.00,,,0.00,weatherlink.com 1.10,2013-05-03 10:55:00,
2013-05-03 06:10:00,40.1,31.0,30.34,NW,316,6.0,8.0,71,0.00,,,0.00,weatherlink.com 1.10,2013-05-03 11:10:00,
2013-05-03 06:25:00,40.4,31.0,30.34,NNW,345,4.0,12.0,70,0.00,,,0.00,weatherlink.com 1.10,2013-05-03 11:25:00,
2013-05-03 06:40:00,40.7,31.0,30.34,NNW,338,3.0,9.0,69,0.00,,,0.00,weatherlink.com 1.10,2013-05-03 11:40:00,
2013-05-03 06:55:00,40.7,31.0,30.35,NNW,335,4.0,11.0,69,0.00,,,0.00,weatherlink.com 1.10,2013-05-03 11:55:00,
2013-05-03 07:10:00,40.7,31.0,30.35,NNW,340,3.0,9.0,69,0.00,,,0.00,weatherlink.com 1.10,2013-05-03 12:10:00,
2013-05-03 07:25:00,41.0,32.0,30.36,NW,322,5.0,9.0,69,0.00,,,0.00,weatherlink.com 1.10,2013-05-03 12:25:00,
2013-05-03 07:40:00,42.5,32.0,30.36,NW,312,1.0,10.0,67,0.00,,,0.00,weatherlink.com 1.10,2013-05-03 12:40:00,
2013-05-03 07:55:00,44.4,32.0,30.36,NNW,327,4.0,11.0,63,0.00,,,0.00,weatherlink.com 1.10,2013-05-03 12:55:00,
2013-05-03 08:10:00,45.7,32.0,30.36,NW,307,12.0,15.0,60,0.00,,,0.00,weatherlink.com 1.10,2013-05-03 13:10:00,
2013-05-03 08:25:00,47.1,33.0,30.36,NNE,18,5.0,12.0,58,0.00,,,0.00,weatherlink.com 1.10,2013-05-03 13:25:00,
2013-05-03 08:40:00,48.4,33.0,30.36,NW,305,5.0,18.0,56,0.00,,,0.00,weatherlink.com 1.10,2013-05-03 13:40:00,
2013-05-03 08:55:00,49.6,34.0,30.36,NNW,334,10.0,15.0,55,0.00,,,0.00,weatherlink.com 1.10,2013-05-03 13:55:00,
2013-05-03 09:10:00,50.9,33.0,30.36,North,359,6.0,16.0,51,0.00,,,0.00,weatherlink.com 1.10,2013-05-03 14:10:00,
2013-05-03 09:25:00,52.4,33.0,30.36,NNW,347,11.0,16.0,48,0.00,,,0.00,weatherlink.com 1.10,2013-05-03 14:25:00,
2013-05-03 09:40:00,54.0,33.0,30.36,NNE,17,7.0,19.0,45,0.00,,,0.00,weatherlink.com 1.10,2013-05-03 14:40:00,
2013-05-03 09:55:00,55.3,32.0,30.35,NNW,328,18.0,18.0,41,0.00,,,0.00,weatherlink.com 1.10,2013-05-03 14:55:00,
2013-05-03 10:10:00,56.5,32.0,30.35,NW,307,16.0,20.0,39,0.00,,,0.00,weatherlink.com 1.10,2013-05-03 15:10:00,
2013-05-03 10:25:00,57.5,30.0,30.35,NNE,12,9.0,27.0,35,0.00,,,0.00,weatherlink.com 1.10,2013-05-03 15:25:00,
2013-05-03 10:40:00,58.3,29.0,30.35,North,350,15.0,26.0,33,0.00,,,0.00,weatherlink.com 1.10,2013-05-03 15:40:00,
2013-05-03 10:55:00,58.2,30.0,30.35,North,352,13.0,27.0,34,0.00,,,0.00,weatherlink.com 1.10,2013-05-03 15:55:00,
2013-05-03 11:10:00,59.0,30.0,30.34,North,358,7.0,25.0,33,0.00,,,0.00,weatherlink.com 1.10,2013-05-03 16:10:00,
2013-05-03 11:25:00,60.4,31.0,30.33,North,2,10.0,22.0,33,0.00,,,0.00,weatherlink.com 1.10,2013-05-03 16:25:00,
2013-05-03 11:40:00,61.2,32.0,30.33,NW,321,11.0,27.0,33,0.00,,,0.00,weatherlink.com 1.10,2013-05-03 16:40:00,
2013-05-03 11:55:00,61.9,31.0,30.33,NNE,12,8.0,21.0,31,0.00,,,0.00,weatherlink.com 1.10,2013-05-03 16:55:00,
2013-05-03 12:11:00,62.7,31.0,30.32,North,6,17.0,22.0,30,0.00,,,0.00,weatherlink.com 1.10,2013-05-03 17:11:00,
2013-05-03 12:26:00,63.0,28.0,30.30,North,350,4.0,24.0,27,0.00,,,0.00,weatherlink.com 1.10,2013-05-03 17:26:00,
2013-05-03 12:41:00,63.5,30.0,30.29,North,356,6.0,25.0,28,0.00,,,0.00,weatherlink.com 1.10,2013-05-03 17:41:00,
2013-05-03 12:56:00,63.9,29.0,30.28,NW,304,6.0,21.0,27,0.00,,,0.00,weatherlink.com 1.10,2013-05-03 17:56:00,
2013-05-03 13:11:00,64.1,28.0,30.27,NNW,347,11.0,20.0,26,0.00,,,0.00,weatherlink.com 1.10,2013-05-03 18:11:00,
2013-05-03 13:26:00,65.0,29.0,30.26,North,6,10.0,20.0,26,0.00,,,0.00,weatherlink.com 1.10,2013-05-03 18:26:00,
2013-05-03 13:41:00,65.3,30.0,30.25,NNE,33,7.0,19.0,27,0.00,,,0.00,weatherlink.com 1.10,2013-05-03 18:41:00,
2013-05-03 13:56:00,66.2,27.0,30.24,NNW,348,14.0,18.0,23,0.00,,,0.00,weatherlink.com 1.10,2013-05-03 18:56:00,
2013-05-03 14:11:00,66.8,30.0,30.23,North,9,11.0,20.0,25,0.00,,,0.00,weatherlink.com 1.10,2013-05-03 19:11:00,
2013-05-03 14:26:00,67.0,31.0,30.22,NNE,28,7.0,16.0,26,0.00,,,0.00,weatherlink.com 1.10,2013-05-03 19:26:00,
2013-05-03 14:41:00,67.1,28.0,30.21,NNE,33,5.0,20.0,23,0.00,,,0.00,weatherlink.com 1.10,2013-05-03 19:41:00,
2013-05-03 14:56:00,67.9,29.0,30.20,WNW,292,6.0,19.0,23,0.00,,,0.00,weatherlink.com 1.10,2013-05-03 19:56:00,
2013-05-03 15:11:00,68.1,28.0,30.19,North,6,9.0,20.0,22,0.00,,,0.00,weatherlink.com 1.10,2013-05-03 20:11:00,
2013-05-03 15:26:00,68.1,28.0,30.18,NNW,336,6.0,15.0,22,0.00,,,0.00,weatherlink.com 1.10,2013-05-03 20:26:00,
2013-05-03 15:41:00,67.7,27.0,30.17,North,359,8.0,16.0,22,0.00,,,0.00,weatherlink.com 1.10,2013-05-03 20:41:00,
2013-05-03 15:56:00,68.1,29.0,30.16,NNW,341,6.0,17.0,23,0.00,,,0.00,weatherlink.com 1.10,2013-05-03 20:56:00,
2013-05-03 16:11:00,68.7,28.0,30.15,NNW,334,7.0,20.0,22,0.00,,,0.00,weatherlink.com 1.10,2013-05-03 21:11:00,
2013-05-03 16:26:00,68.1,29.0,30.14,NNW,336,6.0,17.0,23,0.00,,,0.00,weatherlink.com 1.10,2013-05-03 21:26:00,
2013-05-03 16:41:00,68.2,27.0,30.13,North,3,5.0,15.0,21,0.00,,,0.00,weatherlink.com 1.10,2013-05-03 21:41:00,
2013-05-03 16:56:00,68.6,28.0,30.13,NW,326,3.0,18.0,22,0.00,,,0.00,weatherlink.com 1.10,2013-05-03 21:56:00,
2013-05-03 17:11:00,68.4,27.0,30.12,NNE,23,5.0,15.0,21,0.00,,,0.00,weatherlink.com 1.10,2013-05-03 22:11:00,
2013-05-03 17:26:00,68.1,28.0,30.11,NNE,18,6.0,18.0,22,0.00,,,0.00,weatherlink.com 1.10,2013-05-03 22:26:00,
2013-05-03 17:41:00,68.7,26.0,30.10,NW,312,5.0,15.0,20,0.00,,,0.00,weatherlink.com 1.10,2013-05-03 22:41:00,
2013-05-03 17:56:00,68.2,27.0,30.10,North,356,4.0,10.0,21,0.00,,,0.00,weatherlink.com 1.10,2013-05-03 22:56:00,
2013-05-03 18:11:00,68.5,26.0,30.09,NW,321,6.0,15.0,20,0.00,,,0.00,weatherlink.com 1.10,2013-05-03 23:11:00,
2013-05-03 18:27:00,67.7,26.0,30.09,North,349,4.0,15.0,21,0.00,,,0.00,weatherlink.com 1.10,2013-05-03 23:27:00,
2013-05-03 18:42:00,67.5,26.0,30.09,NW,316,7.0,13.0,21,0.00,,,0.00,weatherlink.com 1.10,2013-05-03 23:42:00,
2013-05-03 18:57:00,66.7,25.0,30.08,NW,325,3.0,14.0,21,0.00,,,0.00,weatherlink.com 1.10,2013-05-03 23:57:00,
2013-05-03 19:12:00,66.0,27.0,30.08,North,2,4.0,9.0,23,0.00,,,0.00,weatherlink.com 1.10,2013-05-04 00:12:00,
2013-05-03 19:27:00,65.3,25.0,30.08,NNW,333,3.0,10.0,22,0.00,,,0.00,weatherlink.com 1.10,2013-05-04 00:27:00,
2013-05-03 19:42:00,64.1,26.0,30.08,North,353,4.0,7.0,24,0.00,,,0.00,weatherlink.com 1.10,2013-05-04 00:42:00,
2013-05-03 19:57:00,63.0,27.0,30.08,NNE,19,4.0,9.0,25,0.00,,,0.00,weatherlink.com 1.10,2013-05-04 00:57:00,
2013-05-03 20:12:00,61.3,27.0,30.08,North,8,2.0,6.0,27,0.00,,,0.00,weatherlink.com 1.10,2013-05-04 01:12:00,
2013-05-03 20:27:00,59.4,27.0,30.09,North,1,1.0,4.0,29,0.00,,,0.00,weatherlink.com 1.10,2013-05-04 01:27:00,
2013-05-03 20:42:00,57.8,28.0,30.09,NNE,14,1.0,4.0,32,0.00,,,0.00,weatherlink.com 1.10,2013-05-04 01:42:00,
2013-05-03 20:57:00,57.5,29.0,30.09,NNE,23,0.0,3.0,34,0.00,,,0.00,weatherlink.com 1.10,2013-05-04 01:57:00,
2013-05-03 21:12:00,55.8,28.0,30.09,NNE,23,0.0,2.0,35,0.00,,,0.00,weatherlink.com 1.10,2013-05-04 02:12:00,
2013-05-03 21:27:00,54.5,30.0,30.09,NNE,23,0.0,1.0,39,0.00,,,0.00,weatherlink.com 1.10,2013-05-04 02:27:00,
2013-05-03 21:42:00,54.0,30.0,30.09,NNE,23,2.0,2.0,40,0.00,,,0.00,weatherlink.com 1.10,2013-05-04 02:42:00,
2013-05-03 21:57:00,54.4,29.0,30.10,SSE,164,2.0,4.0,38,0.00,,,0.00,weatherlink.com 1.10,2013-05-04 02:57:00,
2013-05-03 22:12:00,53.6,28.0,30.10,SSE,164,3.0,3.0,38,0.00,,,0.00,weatherlink.com 1.10,2013-05-04 03:12:00,
2013-05-03 22:27:00,53.3,29.0,30.10,SSE,167,2.0,4.0,39,0.00,,,0.00,weatherlink.com 1.10,2013-05-04 03:27:00,
2013-05-03 22:42:00,53.0,29.0,30.10,SSW,208,3.0,6.0,40,0.00,,,0.00,weatherlink.com 1.10,2013-05-04 03:42:00,
2013-05-03 22:57:00,53.0,29.0,30.09,SSW,196,3.0,7.0,40,0.00,,,0.00,weatherlink.com 1.10,2013-05-04 03:57:00,
2013-05-03 23:12:00,53.3,28.0,30.08,SSW,201,2.0,6.0,38,0.00,,,0.00,weatherlink.com 1.10,2013-05-04 04:12:00,
2013-05-03 23:27:00,49.1,29.0,30.08,SSW,201,0.0,2.0,46,0.00,,,0.00,weatherlink.com 1.10,2013-05-04 04:27:00,
2013-05-03 23:42:00,47.8,30.0,30.07,SSW,201,0.0,2.0,50,0.00,,,0.00,weatherlink.com 1.10,2013-05-04 04:42:00,
2013-05-03 23:57:00,47.4,29.0,30.07,SSW,201,1.0,2.0,50,0.00,,,0.00,weatherlink.com 1.10,2013-05-04 04:57:00,